Regional Weather Roundup
Issued by NWS

Home | Current Version | Previous Version | Graphics & Text | Print | Product List | Glossary On
Versions: 1 2 3 4 5 6 7 8 9 10 11 12 13 14 15 16 17 18 19 20 21 22 23 24 25 26 27 28
000
ASUS45 KTFX 171210
RWRMT
MONTANA REGIONAL WEATHER ROUNDUP
NATIONAL WEATHER SERVICE GREAT FALLS MT
500 AM MST TUE JAN 17 2017

NOTE: "FAIR" INDICATES FEW OR NO CLOUDS BELOW 12000 FEET WITH NO
SIGNIFICANT WEATHER AND/OR OBSTRUCTIONS TO VISIBILITY.

MTZ001>007-043-171300-
WEST OF THE DIVIDE

CITY           SKY/WX    TMP DP  RH WIND       PRES   REMARKS
KALISPELL      FOG       11   8  88 SW3       30.09F VSB 3/4
MISSOULA       CLEAR     -2  -6  83 CALM      30.17F
BUTTE          CLOUDY     1  -4  79 S3        30.05F
MULLAN PASS    MOCLDY    24  14  65 S13G21    29.94F WCI  12
ANACONDA         N/A     21   7  53 SE16G23   30.01F WCI   7
DEER LODGE       N/A      3  -2  78 CALM      30.07F
EUREKA           N/A     21  14  73 S6        30.02F WCI  14
HAMILTON         N/A      0  -4  85 CALM      30.11S
PLAINS           N/A     -3 -11  69 CALM      30.13F
RONAN            N/A     -3 -10  72 MISG      30.09F
THOMPSON FALLS   N/A      8   3  80 E20       30.12F WCI -11
$$

MTZ008-052>055-171300-
SOUTHWEST MONTANA

CITY           SKY/WX    TMP DP  RH WIND       PRES   REMARKS
BOZEMAN        CLOUDY     3  -2  79 CALM      30.07F
DILLON         CLOUDY    20   4  50 SW13      30.07F WCI   7
ENNIS          CLEAR     19  10  68 S10G20    30.11S WCI   8
$$

MTZ009-010-012-014-046-048-049-054-171300-
EAST SLOPES AND CENTRAL MONTANA

CITY           SKY/WX    TMP DP  RH WIND       PRES   REMARKS
CUT BANK       MOCLDY    39  19  44 W23       29.78R WCI  28
GREAT FALLS    CLOUDY    34  17  50 SW24      29.83S WCI  21
MALMSTROM AFB  CLOUDY    35  21  57 SW24      29.83S WCI  23
HELENA         CLOUDY     1  -3  83 N3        30.07F
AUGUSTA          N/A     31  16  55 S9        29.84S WCI  22
BOWMANS CRNR     N/A     27  11  51 S26       29.87S WCI  12
CHOTEAU          N/A     37  19  48 SW8       29.83S WCI  31
CONRAD           N/A     43  24  47 W14       29.82R
FAIRFIELD        N/A     32  16  52 SW25G31   29.83R WCI  18
POWER            N/A     27  17  66 W3        29.82S
RAYNESFORD       N/A     44  20  38 SW18G24   29.83R
ULM              N/A     35  17  47 MISG      29.87R
$$

MTZ011-013-016-021-045-047-050-051-171300-
NORTH CENTRAL MONTANA

CITY           SKY/WX    TMP DP  RH WIND       PRES   REMARKS
HAVRE          CLOUDY    36  24  62 SW30      29.74S WCI  23
LEWISTOWN      CLOUDY    27  17  66 S9        29.83S WCI  18
N BAR RANCH      N/A     36  19  51 W5        29.84S
CHINOOK          N/A     16  10  79 E8        29.74F WCI   5
DENTON         MOCLDY    28  20  72 SE16      29.77F WCI  16
FORT BENTON      N/A     39  19  45 MISG      29.82R
GEYSER           N/A     43  18  36 W12       29.81F
GRASS RANGE      N/A     40  22  50 SW18      29.77F
JUDITH GAP       N/A     29  16  58 S10       29.84S WCI  19
ROY              N/A     42  25  50 MISG      29.77F
STANFORD         N/A     43  22  42 W9        29.81F
WINIFRED         N/A     40  23  50 SW13      29.78F
$$

MTZ017>020-022>027-061-062-171300-
NORTHEAST MONTANA

CITY           SKY/WX    TMP DP  RH WIND       PRES   REMARKS
GLASGOW        CLOUDY    13   7  77 SE10      29.78F WCI   0
JORDAN           N/A     26  15  63 W7        29.80F WCI  18
SIDNEY         CLOUDY    10   5  80 SW18      29.87F WCI  -8
WOLF POINT     CLOUDY    -2  -7  79 CALM      29.82F
PLENTYWOOD       N/A     10   7  85 E9        29.76F WCI  -2
POPLAR           N/A     10   7  85 CALM      29.82F
SCOBEY           N/A     14   1  56 SE6       29.74F WCI   5
$$

MTZ028>42-056>058-171300-
SOUTHCENTRAL AND SOUTHEAST MONTANA

CITY           SKY/WX    TMP DP  RH WIND       PRES   REMARKS
BILLINGS       CLOUDY    25  12  58 SW23      29.88F WCI  10
MILES CITY     CLOUDY     9   2  73 S7        29.89F WCI  -2
BIG TIMBER     CLEAR     34  14  44 W39G48    29.89F WCI  18
EKALAKA          N/A     34   7  32 S8        29.87F WCI  27
FORSYTH          N/A      9   3  78 SE6       29.89F WCI  -1
HARLOWTON        N/A     36  13  39 NW29G37   29.89R WCI  24
LAUREL           N/A     26  11  53 S14       29.90F WCI  14
$$

REGIONAL REPORTS...DAKOTAS

CITY           SKY/WX    TMP DP  RH WIND       PRES   REMARKS
WILLISTON      CLOUDY     7   3  84 S6        29.85F WCI  -3
MINOT          CLOUDY    21  15  78 SW12      29.86F WCI   9
DICKINSON      CLOUDY    14   6  70 S10       29.87F WCI   1
BEACH            N/A     16   9  73 S8        29.90F WCI   5
CROSBY           N/A     16   9  73 S28       29.78F WCI  -4
TIOGA            N/A     16  10  79 S13       29.83F WCI   2
WATFORD CITY     N/A      5   0  78 CALM      29.87F
BISMARCK       CLOUDY     0  -6  76 S3        29.97F
GRAND FORKS    CLOUDY     2  -3  80 S7        29.95F WCI -11
FARGO          CLOUDY     2  -2  83 SW6       29.99S WCI  -9
BUFFALO SD       N/A     22  10  60 CALM      29.85F
RAPID CITY     CLOUDY    14   9  80 CALM      29.97F
$$

REGIONAL REPORTS...WYOMING/IDAHO/WASHINGTON

CITY           SKY/WX    TMP DP  RH WIND       PRES   REMARKS
GILLETTE       CLOUDY    17   6  62 CALM      29.93F
SHERIDAN       CLOUDY     8   0  69 VRB6      29.90F WCI  -2
BUFFALO WY     CLOUDY    34   0  23 SW7       29.92S WCI  28
CODY           CLOUDY     9   1  70 CALM      29.97F
YELLOWSTONE LA   N/A    -11 -15  82 CALM      30.15F
IDAHO FALLS    CLOUDY    -7 -10  87 N10       30.28S WCI -25
SALMON         CLOUDY   -17 -24  70 CALM      30.38S
BOISE          CLEAR      1  -3  83 CALM      30.37S FOG
SPOKANE        MOCLDY    12   9  87 CALM      30.06F
$$

REGIONAL REPORTS...ALBERTA

CITY           SKY/WX    TMP DP  RH WIND       PRES   REMARKS
EDMONTON       CLEAR     39  25  56 SW9       29.35R
CALGARY        PTCLDY    43  28  56 SW15      29.52F
LETHBRIDGE     CLOUDY    39  28  65 SW23G37   29.68S WCI  29
MEDICINE HAT   CLEAR     41  30  65 SW26G36   29.59S
WATERTON GATE    N/A     36  19  51 SW21G36     N/A  WCI  24
MILK RIVER       N/A     41  30  65 W28         N/A
ONEFOUR          N/A     23  18  80 N2          N/A
$$

REGIONAL REPORTS...SASKATCHEWAN

CITY           SKY/WX    TMP DP  RH WIND       PRES   REMARKS
SWIFT CURRENT  CLEAR     32  23  69 SW25G31   29.53F WCI  19
REGINA         PTCLDY    21  14  73 SE10      29.63F WCI  10
SASKATOON      MOCLDY    25  19  80 S9        29.47F WCI  15
CYPRESS HILLS    N/A     48  27  43 W21G32      N/A
VAL MARIE        N/A     14  10  85 SW15        N/A  WCI  -1
ROCKGLEN         N/A     27  18  69 SW22        N/A  WCI  12
ASSINIBOIA       N/A     39  32  75 S7          N/A
$$




USA.gov is the U.S. government's official web portal to all federal, state and local government web resources and services.